EW9240 Weather Reports


Display with metric or nautical units.
time (UTC)temp
F
wind
direction
speed
MPH
gust
MPH
rain 1hr
in
rain 24hr
in
rain mn
in
humidity
%
barometer
mb
20260905193056 65 295 1.0 4.0 0.00 0.01 0.00 69 1014.8
20260905191534 64 285 1.0 5.0 0.00 0.01 0.00 73 1014.9
20260905190108 63 274 0.0 5.0 0.00 0.01 0.00 75 1015.1
20260905184553 63 295 1.0 5.0 0.00 0.01 0.00 75 1015.2
20260905183030 62 3 0.0 4.0 0.00 0.01 0.00 79 1015.4
20260905181513 62 274 0.0 4.0 0.00 0.01 0.00 79 1015.5
20260905180058 61 359 0.0 2.0 0.00 0.01 0.00 82 1015.5
20260905174535 60 6 0.0 3.0 0.00 0.01 0.00 83 1015.5
20260905173019 60 300 0.0 3.0 0.00 0.01 0.00 84 1015.5
20260905171502 59 127 0.0 1.0 0.00 0.01 0.00 86 1015.5
20260905170054 59 58 0.0 2.0 0.00 0.01 0.00 86 1015.6
20260905164533 59 61 0.0 2.0 0.00 0.01 0.00 85 1015.6
20260905163019 59 58 0.0 1.0 0.00 0.01 0.00 86 1015.6
20260905161529 58 129 0.0 2.0 0.00 0.01 0.00 87 1015.6
20260905160013 57 134 0.0 2.0 0.00 0.01 0.00 89 1015.7
20260905154619 56 124 0.0 1.0 0.00 0.01 0.00 90 1015.7
20260905153048 55 75 0.0 1.0 0.00 0.01 0.00 93 1015.7
20260905151532 54 113 0.0 0.0 0.00 0.01 0.00 95 1015.8
20260905150016 53 128 0.0 0.0 0.00 0.01 0.00 95 1015.8
20260905144502 52 128 0.0 0.0 0.00 0.01 0.00 94 1015.7
20260905143052 52 128 0.0 0.0 0.00 0.01 0.00 94 1015.6
20260905141539 52 128 0.0 0.0 0.00 0.01 0.00 94 1015.5
20260905140024 52 128 0.0 0.0 0.00 0.01 0.00 94 1015.6
20260905134538 52 128 0.0 0.0 0.00 0.01 0.00 94 1015.4
20260905133020 52 128 0.0 0.0 0.00 0.01 0.00 94 1015.4
20260905131507 52 128 0.0 0.0 0.00 0.01 0.00 93 1015.3
20260905130058 53 128 0.0 0.0 0.00 0.01 0.00 93 1015.1
20260905124505 53 128 0.0 0.0 0.00 0.02 0.00 93 1015.0
20260905123057 53 128 0.0 0.0 0.00 0.02 0.00 93 1015.2
20260905121538 53 128 0.0 0.0 0.00 0.02 0.00 93 1015.0
20260905120027 53 128 0.0 0.0 0.00 0.02 0.00 94 1015.0
20260905114510 53 128 0.0 0.0 0.00 0.02 0.00 94 1015.0
20260905113102 53 128 0.0 0.0 0.00 0.02 0.00 94 1015.0
20260905111536 53 97 0.0 0.0 0.00 0.02 0.00 94 1015.0
20260905110015 53 97 0.0 0.0 0.00 0.02 0.00 94 1014.9
20260905104502 53 99 0.0 0.0 0.00 0.02 0.00 94 1014.9
20260905103058 53 99 0.0 0.0 0.00 0.02 0.00 94 1015.0
20260905101543 53 99 0.0 0.0 0.00 0.02 0.00 93 1015.0
20260905100034 53 99 0.0 0.0 0.00 0.02 0.00 93 1014.9
20260905094513 54 99 0.0 0.0 0.00 0.02 0.00 93 1014.8
20260905093028 54 96 0.0 0.0 0.00 0.02 0.00 93 1014.9
20260905091511 54 96 0.0 0.0 0.00 0.02 0.00 93 1014.8
20260905090056 54 96 0.0 0.0 0.00 0.02 0.00 93 1014.7
20260905084604 54 127 0.0 0.0 0.00 0.02 0.00 93 1014.6
20260905083027 54 119 0.0 0.0 0.00 0.02 0.00 93 1014.6
20260905081515 54 120 0.0 0.0 0.00 0.02 0.00 93 1014.5
20260905080107 55 120 0.0 0.0 0.00 0.02 0.00 93 1014.4
20260905074547 55 120 0.0 0.0 0.00 0.02 0.00 93 1014.5
20260905073034 55 120 0.0 0.0 0.00 0.02 0.00 93 1014.6
20260905071516 55 120 0.0 0.0 0.00 0.02 0.00 93 1014.4
20260905070112 55 120 0.0 0.0 0.00 0.02 0.00 93 1014.2
20260905064549 55 70 0.0 0.0 0.00 0.02 0.02 93 1014.2
20260905063034 55 70 0.0 0.0 0.00 0.02 0.02 93 1014.1
20260905061521 56 70 0.0 0.0 0.00 0.02 0.02 93 1014.0
20260905060007 55 71 0.0 0.0 0.00 0.02 0.02 93 1013.9
20260905054601 55 67 0.0 0.0 0.00 0.02 0.02 93 1013.8
20260905053045 55 67 0.0 0.0 0.00 0.02 0.02 93 1013.9
20260905051536 55 54 0.0 0.0 0.00 0.02 0.02 92 1013.8
20260905050011 55 54 0.0 0.0 0.00 0.02 0.02 92 1013.6
20260905043047 56 54 0.0 0.0 0.00 0.02 0.02 91 1013.7
20260905041531 56 54 0.0 0.0 0.00 0.02 0.02 91 1013.6
20260905040052 56 54 0.0 0.0 0.00 0.02 0.02 91 1013.6
20260905034538 56 54 0.0 0.0 0.00 0.02 0.02 90 1013.4
20260905033024 57 54 0.0 0.0 0.00 0.02 0.02 89 1013.3
20260905031508 57 54 0.0 0.0 0.00 0.02 0.02 89 1013.1
20260905030059 58 54 0.0 0.0 0.00 0.02 0.02 88 1013.0
20260905024543 58 53 0.0 0.0 0.00 0.02 0.02 87 1013.1
20260905023105 58 53 0.0 0.0 0.00 0.02 0.02 87 1013.1
20260905021550 59 53 0.0 1.0 0.00 0.02 0.02 86 1013.0
20260905020037 59 53 0.0 0.0 0.00 0.02 0.02 86 1012.9
20260905014521 59 53 0.0 1.0 0.00 0.02 0.02 86 1012.7
20260905013006 59 106 0.0 1.0 0.00 0.02 0.02 85 1012.6
20260905011544 60 130 0.0 0.0 0.00 0.02 0.02 85 1012.5
20260905010033 60 130 0.0 0.0 0.00 0.02 0.02 85 1012.3
20260905004516 60 137 0.0 0.0 0.00 0.02 0.02 87 1012.3
20260905003007 60 124 0.0 3.0 0.00 0.02 0.02 87 1012.3
20260905001556 60 54 1.0 3.0 0.00 0.02 0.02 87 1012.3
20260905000020 60 358 0.0 2.0 0.00 0.02 0.02 87 1012.2
20260904234515 60 132 0.0 1.0 0.00 0.02 0.02 89 1012.3
20260904233058 59 135 0.0 2.0 0.00 0.02 0.02 88 1012.2
20260904231543 59 126 0.0 0.0 0.01 0.02 0.02 88 1012.2
20260904230030 58 127 0.0 1.0 0.01 0.02 0.02 87 1012.2
20260904224518 58 220 0.0 1.0 0.01 0.02 0.02 88 1012.2
20260904223004 58 131 0.0 4.0 0.01 0.02 0.02 88 1012.3
20260904221557 58 130 0.0 5.0 0.00 0.01 0.01 87 1012.3
20260904220042 59 150 0.0 1.0 0.00 0.01 0.01 84 1011.9
20260904214527 60 224 1.0 11.0 0.00 0.01 0.01 80 1011.8
20260904213009 66 192 2.0 5.0 0.00 0.01 0.01 66 1011.4
20260904211603 67 213 0.0 2.0 0.00 0.01 0.01 61 1011.0
20260904210039 66 312 0.0 2.0 0.00 0.01 0.01 59 1010.8
20260904204520 67 344 3.0 7.0 0.00 0.01 0.01 59 1010.7
20260904203009 66 295 2.0 5.0 0.00 0.01 0.01 59 1010.7
20260904201555 65 71 1.0 2.0 0.00 0.01 0.01 61 1010.7
20260904200040 65 41 1.0 4.0 0.00 0.01 0.01 62 1010.8
20260904194526 65 280 2.0 5.0 0.00 0.02 0.01 61 1010.9